Weather History for Claremore, OK

Change the Weather History Date:

Tuesday, October 9, 2012

  Actual Average (KTUL) Record (KTUL)
Temperature  
Mean Temperature 52 °F 64 °F  
Max Temperature 62 °F 75 °F 97 °F (1963)
Min Temperature 42 °F 53 °F 28 °F (2000)
Degree Days  
Heating Degree Days 13 4  
Month to date heating degree days 29  
Since 1 July heating degree days 53  
Cooling Degree Days 0 3  
Month to date cooling degree days 31  
Year to date cooling degree days 1996  
Growing Degree Days 2 (Base 50)    
Moisture  
Dew Point 47 °F    
Average Humidity 78    
Maximum Humidity 100    
Minimum Humidity 59    
Precipitation  
Precipitation 0.00 in 0.13 in 2.86 in (2003)
Month to date precipitation 1.12  
Year to date precipitation 32.86  
Sea Level Pressure  
Sea Level Pressure 30.01 in    
Wind  
Wind Speed 8 mph (South)    
Max Wind Speed 22 mph    
Max Gust Speed 30 mph    
Visibility 10 miles    
Events      
T = Trace of Precipitation, MM = Missing Value Source: NWS Daily Summary

Daily Weather History Graph

Daily Weather History Graph

Search for Another Location

Airport:

Trip Planner

Search our weather history database for the weather conditions in past years. The results will help you decide how hot, cold, wet, or windy it might be!

Date:

Astronomy

Oct. 09, 2012 Rise Set
Actual Time 7:24 AM CDT 6:53 PM CDT
Civil Twilight 6:58 AM CDT 7:19 PM CDT
Nautical Twilight 6:28 AM CDT 7:48 PM CDT
Astronomical Twilight 5:58 AM CDT 8:18 PM CDT
Moon 1:11 AM CDT (10/9) 3:12 PM CDT (10/9)
Length of Visible Light 12h 20m
Length of Day
11h 29m
Last Quarter, 36% of the Moon is Illuminated
Oct 9
Last Quarter
Oct 15
New
Oct 21
First Quarter
Oct 29
Full
Nov 6
Last Quarter

Hourly Weather History & Observations

Time (CDT) Temp. Windchill Dew Point Humidity Pressure Visibility Wind Dir Wind Speed Gust Speed Precip Events Conditions
12:15 AM 44.6 °F 40.7 °F 39.2 °F 81% 30.08 in 10.0 mi SSE 6.9 mph - N/A   Clear
12:35 AM 44.6 °F 40.7 °F 37.4 °F 76% 30.08 in 10.0 mi SSE 6.9 mph - N/A   Clear
12:55 AM 44.6 °F 41.4 °F 39.2 °F 81% 30.08 in 10.0 mi South 5.8 mph - N/A   Clear
1:15 AM 42.8 °F 39.3 °F 37.4 °F 81% 30.08 in 10.0 mi South 5.8 mph - N/A   Clear
1:35 AM 44.6 °F 40.7 °F 37.4 °F 76% 30.07 in 10.0 mi South 6.9 mph - N/A   Clear
1:55 AM 44.6 °F 40.7 °F 37.4 °F 76% 30.08 in 10.0 mi South 6.9 mph - N/A   Clear
2:35 AM 44.6 °F 40.7 °F 39.2 °F 81% 30.07 in 10.0 mi South 6.9 mph - N/A   Clear
2:55 AM 44.6 °F 40.7 °F 39.2 °F 81% 30.06 in 10.0 mi SSE 6.9 mph - N/A   Clear
3:35 AM 44.6 °F 40.2 °F 39.2 °F 81% 30.05 in 10.0 mi SSE 8.1 mph - N/A   Clear
3:55 AM 42.8 °F 38.6 °F 37.4 °F 81% 30.05 in 10.0 mi SSE 6.9 mph - N/A   Clear
4:15 AM 42.8 °F 39.3 °F 39.2 °F 87% 30.04 in 10.0 mi SSE 5.8 mph - N/A   Clear
4:35 AM 42.8 °F 40.1 °F 37.4 °F 81% 30.04 in 10.0 mi SSE 4.6 mph - N/A   Clear
4:55 AM 42.8 °F 40.1 °F 37.4 °F 81% 30.03 in 10.0 mi South 4.6 mph - N/A   Clear
5:15 AM 42.8 °F 38.6 °F 37.4 °F 81% 30.03 in 10.0 mi SSE 6.9 mph - N/A   Clear
5:35 AM 42.8 °F 38.6 °F 39.2 °F 87% 30.02 in 10.0 mi SSE 6.9 mph - N/A   Clear
5:55 AM 42.8 °F 38.6 °F 39.2 °F 87% 30.03 in 10.0 mi SSE 6.9 mph - N/A   Clear
6:15 AM 42.8 °F 38.6 °F 39.2 °F 87% 30.02 in 10.0 mi SSE 6.9 mph - N/A   Clear
6:35 AM 44.6 °F 40.7 °F 41.0 °F 87% 30.02 in 10.0 mi SSE 6.9 mph - N/A   Clear
6:55 AM 44.6 °F 40.2 °F 41.0 °F 87% 30.02 in 10.0 mi SSE 8.1 mph - N/A   Clear
7:15 AM 44.6 °F 40.7 °F 41.0 °F 87% 30.02 in 10.0 mi SSE 6.9 mph - N/A   Clear
7:35 AM 44.6 °F 40.2 °F 41.0 °F 87% 30.01 in 10.0 mi SSE 8.1 mph - N/A   Clear
7:55 AM 46.4 °F 40.7 °F 41.0 °F 81% 30.01 in 10.0 mi SSE 12.7 mph - N/A   Clear
8:15 AM 46.4 °F 41.1 °F 42.8 °F 87% 30.01 in 10.0 mi SSE 11.5 mph 17.3 mph N/A   Clear
8:35 AM 50.0 °F - 42.8 °F 76% 30.01 in 10.0 mi SSE 13.8 mph 19.6 mph N/A   Clear
8:55 AM 50.0 °F - 42.8 °F 76% 30.01 in 10.0 mi SSE 13.8 mph 18.4 mph N/A   Clear
9:15 AM 51.8 °F - 42.8 °F 71% 30.01 in 10.0 mi South 15.0 mph 20.7 mph N/A   Clear
9:35 AM 51.8 °F - 44.6 °F 76% 30.01 in 10.0 mi South 16.1 mph 23.0 mph N/A   Clear
9:55 AM 53.6 °F - 44.6 °F 72% 30.01 in 10.0 mi South 15.0 mph 21.9 mph N/A   Clear
10:15 AM 55.4 °F - 44.6 °F 67% 30.00 in 10.0 mi South 20.7 mph 25.3 mph N/A   Clear
10:35 AM 57.2 °F - 46.4 °F 67% 30.00 in 10.0 mi South 16.1 mph 27.6 mph N/A   Clear
10:55 AM 59.0 °F - 46.4 °F 63% 30.00 in 10.0 mi South 16.1 mph 24.2 mph N/A   Scattered Clouds
11:15 AM 59.0 °F - 46.4 °F 63% 29.99 in 10.0 mi South 16.1 mph 29.9 mph N/A   Mostly Cloudy
11:35 AM 59.0 °F - 46.4 °F 63% 29.98 in 10.0 mi South 16.1 mph 26.5 mph N/A   Overcast
11:55 AM 60.8 °F - 46.4 °F 59% 29.98 in 10.0 mi South 19.6 mph 24.2 mph N/A   Overcast
12:15 PM 60.8 °F - 48.2 °F 63% 29.97 in 10.0 mi South 21.9 mph 26.5 mph N/A   Mostly Cloudy
12:35 PM 60.8 °F - 48.2 °F 63% 29.96 in 10.0 mi South 17.3 mph 25.3 mph N/A   Overcast
1:15 PM 60.8 °F - 50.0 °F 68% 29.94 in 10.0 mi South 18.4 mph 24.2 mph N/A   Overcast
1:35 PM 60.8 °F - 50.0 °F 68% 29.93 in 10.0 mi South 13.8 mph - N/A   Overcast
1:55 PM 62.6 °F - 50.0 °F 63% 29.93 in 10.0 mi South 9.2 mph - N/A   Overcast
2:15 PM 62.6 °F - 50.0 °F 63% 29.91 in 10.0 mi South 15.0 mph - N/A   Overcast
2:35 PM 62.6 °F - 51.8 °F 68% 29.91 in 10.0 mi SSW 16.1 mph 20.7 mph N/A   Overcast
2:55 PM 62.6 °F - 51.8 °F 68% 29.92 in 10.0 mi SW 12.7 mph 17.3 mph N/A   Overcast
3:15 PM 62.6 °F - 51.8 °F 68% 29.93 in 10.0 mi SW 13.8 mph - N/A   Overcast
3:35 PM 62.6 °F - 51.8 °F 68% 29.95 in 10.0 mi SW 8.1 mph - N/A   Overcast
4:15 PM 62.6 °F - 51.8 °F 68% 29.95 in 10.0 mi SSW 4.6 mph - N/A   Overcast
4:35 PM 62.6 °F - 53.6 °F 72% 29.95 in 10.0 mi SSW 4.6 mph - N/A   Mostly Cloudy
4:55 PM 62.6 °F - 53.6 °F 72% 29.95 in 10.0 mi SSW 5.8 mph - N/A   Overcast
5:15 PM 62.6 °F - 53.6 °F 72% 29.95 in 10.0 mi South 4.6 mph - N/A   Mostly Cloudy
5:35 PM 62.6 °F - 53.6 °F 72% 29.95 in 10.0 mi South 5.8 mph - N/A   Mostly Cloudy
5:55 PM 62.6 °F - 53.6 °F 72% 29.95 in 10.0 mi SSW 5.8 mph - N/A   Mostly Cloudy
6:15 PM 62.6 °F - 53.6 °F 72% 29.97 in 10.0 mi South 3.5 mph - N/A   Mostly Cloudy
6:35 PM 62.6 °F - 53.6 °F 72% 29.97 in 10.0 mi Calm Calm - N/A   Overcast
6:55 PM 60.8 °F - 53.6 °F 77% 29.98 in 10.0 mi SSE 3.5 mph - N/A   Mostly Cloudy
7:15 PM 60.8 °F - 53.6 °F 77% 29.99 in 10.0 mi SE 3.5 mph - N/A   Mostly Cloudy
7:35 PM 60.8 °F - 53.6 °F 77% 30.00 in 10.0 mi Calm Calm - N/A   Overcast
7:55 PM 60.8 °F - 53.6 °F 77% 30.01 in 10.0 mi Calm Calm - N/A   Overcast
8:15 PM 59.0 °F - 53.6 °F 82% 30.02 in 10.0 mi Calm Calm - N/A   Overcast
8:35 PM 59.0 °F - 53.6 °F 82% 30.02 in 10.0 mi Calm Calm - N/A   Overcast
8:55 PM 59.0 °F - 53.6 °F 82% 30.03 in 10.0 mi North 3.5 mph - N/A   Overcast
9:15 PM 57.2 °F - 53.6 °F 88% 30.04 in 10.0 mi Calm Calm - N/A   Mostly Cloudy
9:35 PM 55.4 °F - 51.8 °F 88% 30.05 in 7.0 mi Calm Calm - N/A   Scattered Clouds
10:15 PM 51.8 °F - 51.8 °F 100% 30.07 in 4.0 mi Calm Calm - N/A   Mostly Cloudy
10:35 PM 53.6 °F - 51.8 °F 94% 30.09 in 5.0 mi NNE 3.5 mph - N/A   Overcast
10:55 PM 53.6 °F - 53.6 °F 100% 30.10 in 7.0 mi NNE 3.5 mph - N/A   Mostly Cloudy
11:15 PM 53.6 °F - 51.8 °F 94% 30.10 in 7.0 mi Calm Calm - N/A   Mostly Cloudy
11:35 PM 55.4 °F - 53.6 °F 94% 30.11 in 7.0 mi Calm Calm - N/A   Overcast
11:55 PM 53.6 °F - 51.8 °F 94% 30.11 in 5.0 mi North 6.9 mph - N/A   Mostly Cloudy